Regional Weather Roundup
Issued by NWS Kansas City/Pleasant Hill, MO

Home | Current Version | Previous Version | Graphics & Text | Print | Product List | Glossary Off
Versions: 1 2 3 4 5 6 7 8 9 10 11 12 13 14 15 16 17 18 19 20 21 22 23 24 25 26 27 28

000
ASUS43 KEAX 180010
RWREAX

WEATHER ROUNDUP FOR EASTERN KANSAS AND NORTHWEST MISSOURI
NATIONAL WEATHER SERVICE KANSAS CITY/PLEASANT HILL MO
600 PM CST FRI NOV 17 2017

KSZ040-057-103>105-MOZ028-029-037-043-180100-
...KANSAS CITY METROPOLITAN AREA...

CITY           SKY/WX    TMP DP  RH WIND       PRES   REMARKS
K.C. INTL      PTCLDY    58  56  93 S7        29.49S
6HR MIN TEMP:  58; 6HR MAX TEMP:  69;

K.C. DOWNTOWN  CLEAR     68  58  70 S7        29.47F
6HR MIN TEMP:  61; 6HR MAX TEMP:  72;

LEES SUMMIT    CLOUDY    65  60  84 S13       29.50F
6HR MIN TEMP:  57; 6HR MAX TEMP:  68;

OLATHE - IXD   CLOUDY    62  59  90 S8        29.49S
6HR MIN TEMP:  62; 6HR MAX TEMP:  69;

OLATHE - OJC   CLOUDY    61  58  90 S8        29.50R
6HR MIN TEMP:  60; 6HR MAX TEMP:  68;

LAWRENCE       CLEAR     62  57  83 E7        29.48R

$$

MOZ001>008-011>017-020>025-030>033-038>040-044>046-053-054-180100-
...NORTHERN AND CENTRAL MISSOURI...

CITY           SKY/WX    TMP DP  RH WIND       PRES   REMARKS
ST. JOSEPH     CLOUDY    59  56  89 E5        29.49S FOG
6HR MIN TEMP:  58; 6HR MAX TEMP:  66; 6HR PCP: TRACE;

MOSBY          PTCLDY    63  57  82 CALM      29.50R
WARRENSBURG    PTCLDY    64  57  77 S9        29.52F
WHITEMAN AFB   CLEAR     64  59  83 S13       29.48F
6HR MIN TEMP:  58; 6HR MAX TEMP:  65;

CLINTON        NOT AVBL
SEDALIA        PTCLDY    64  60  87 S14       29.54F
6HR MIN TEMP:  61; 6HR MAX TEMP:  66;

WARSAW         NOT AVBL
CHILLICOTHE      N/A     54  53  97 CALM      29.54R
6HR MIN TEMP:  54; 6HR MAX TEMP:  59; 6HR PCP:  0.02;

KIRKSVILLE     CLOUDY    55  53  93 SE7       29.56S
6HR MIN TEMP:  52; 6HR MAX TEMP:  55;


$$

MOZ041-047>049-056>058-063>065-088>090-097-180100-
...EASTERN AND SOUTHERN MISSOURI...

CITY           SKY/WX    TMP DP  RH WIND       PRES   REMARKS
ST. LOUIS INTL CLOUDY    55  47  74 SE17      29.69F
6HR MIN TEMP:  48; 6HR MAX TEMP:  55;

SPIRIT OF STL  CLOUDY    58  51  78 S8G20     29.67F
COLUMBIA       CLOUDY    62  57  83 S15G23    29.58S
JEFFERSON CITY CLOUDY    65  56  72 S10       29.59S
ROLLA          CLOUDY    60  57  89 S12G24    29.65F
OSAGE BEACH    CLOUDY    64  58  80 S12G17    29.62
SPRINGFIELD    CLOUDY    67  60  78 S17       29.60F
BRANSON        MOCLDY    66  59  77 S12G23    29.66F
JOPLIN         PTCLDY    70  63  78 S17       29.56F
WEST PLAINS    CLOUDY    62  59  90 S12       29.69F

$$

IAZ060-094-KSZ022-034>040-054-083-096-NEZ052-066-093-180100-
...KANSAS...SOUTHEAST NEBRASKA AND IOWA...

CITY           SKY/WX    TMP DP  RH WIND       PRES   REMARKS
TOPEKA         CLEAR     68  58  70 S5        29.46S
6HR MIN TEMP:  64; 6HR MAX TEMP:  74;

MANHATTAN      PTCLDY    64  49  57 SW6       29.46R
EMPORIA        CLOUDY    65  51  60 S8        29.49R
CHANUTE        CLOUDY    71  56  58 S12       29.51S
WICHITA        CLOUDY    66  51  58 S9        29.49S
OMAHA          CLOUDY    57  51  80 N8        29.53R
LINCOLN        CLOUDY    54  43  66 N9        29.54R
FALLS CITY     CLEAR     58  54  86 E6        29.47S
LAMONI         FOG       54  54 100 S6        29.54R VSB 1/4
DES MOINES     CLOUDY    51  49  92 E3        29.54R FOG

$$





USA.gov is the U.S. government's official web portal to all federal, state and local government web resources and services.